Regional Weather Roundup
Issued by NWS Cleveland, OH

Home | Current Version | Previous Version | Text Only | Print | Product List | Glossary Off
Versions: 1 2 3 4 5 6 7 8 9 10 11 12 13 14 15 16 17 18 19 20 21 22 23 24 25 26 27 28 29 30 31 32 33 34 35 36 37 38 39 40 41 42 43 44 45 46 47 48 49 50

000
ASUS41 KCLE 271510
RWRCLE
OHIO REGIONAL WEATHER ROUNDUP
NATIONAL WEATHER SERVICE WILMINGTON, OH
1100 AM EDT FRI MAR 27 2015

NOTE: "FAIR" INDICATES FEW OR NO CLOUDS BELOW 12,000 FEET WITH NO
SIGNIFICANT WEATHER AND/OR OBSTRUCTIONS TO VISIBILITY.

OHZ001>008-015>018-024>027-034-035-043-044-271600-
   NORTHWEST OHIO

CITY           SKY/WX    TMP DP  RH WIND       PRES   REMARKS
DEFIANCE       CLOUDY    27  12  53 NW16G24   30.05R WCI  15
FINDLAY        PTSUNNY   29  15  56 N18       30.00R WCI  16
TOLEDO EXPRESS CLOUDY    25  11  55 NW13G20   30.03R WCI  14
TOLEDO EXEC    CLOUDY    26  12  55 NW14      30.03S WCI  14
LIMA           PTSUNNY   28  15  58 NW22G29   30.00R WCI  14
$$

OHZ009>014-019>023-028>033-038-089-271600-
   NORTHEAST OHIO

CITY           SKY/WX    TMP DP  RH WIND       PRES   REMARKS
CLE-HOPKINS    LGT SNOW  25  19  78 NW15      30.00R WCI  13
CLE-LAKEFRONT  CLOUDY    26  18  71 NW14      29.97S WCI  14
CUY CO. ARPT   FLURRIES  27  21  80 N12       29.96S WCI  16
LORAIN-ELYRIA  FLURRIES  24  18  77 N14       29.98S WCI  12
ASHTABULA      LGT SNOW  27  21  78 NW8       29.93S WCI  19
AKRON-CANTON   LGT SNOW  29  23  78 N13       29.91S WCI  19
WOOSTER        LGT SNOW  27  22  81 N13       29.94R WCI  16
MANSFIELD      CLOUDY    27  20  75 NW15      29.94R WCI  15
YOUNGSTOWN     FLURRIES  28  23  81 N15       29.90S WCI  16
$$

OHZ042-051>053-060>062-070>072-077>081-271600-
  SOUTHWEST OHIO

CITY           SKY/WX    TMP DP  RH WIND       PRES   REMARKS
CINC-COVINGTON PTSUNNY   37  24  59 N9        30.00R
CINC-LUNKEN    PTSUNNY   37  23  56 N12       30.02S
HAMILTON       CLOUDY    35  24  64 N14       30.02S WCI  26
DAYTON         CLOUDY    32  22  66 NW16      30.01R WCI  21
WRIGHT-PAT AFB FLURRIES  32  25  74 NW14      30.00R WCI  22
DAYTON GENERAL CLOUDY    32  23  69 NW10      29.99R WCI  24
WILMINGTON     CLOUDY    33  23  66 N14       29.97S WCI  23
$$

OHZ036-037-039>041-045>050-054>059-063>069-073>076-082>088-271600-
  CENTRAL AND SOUTHEAST OHIO

CITY           SKY/WX    TMP DP  RH WIND       PRES   REMARKS
COLUMBUS       CLOUDY    32  21  64 N13       29.96R WCI  22
OSU AIRPORT    CLOUDY    32  20  61 N16       29.96R WCI  21
BOLTON FIELD   CLOUDY    32  23  69 NW10G16   29.97R WCI  24
RICKENBACK AFB CLOUDY    34  22  61 N9        29.97R WCI  26
NEWARK         CLOUDY    34  21  59 N9        29.94R WCI  27
MARION         MOSUNNY   31  17  56 N15G23    29.97R WCI  20
LANCASTER      CLOUDY    35  26  69 N12       29.96R WCI  27
ZANESVILLE     CLOUDY    35  25  66 N8        29.93R WCI  29
NEW PHILLY     CLOUDY    34  24  67 NW12      29.93R WCI  25
$$



USA.gov is the U.S. government's official web portal to all federal, state and local government web resources and services.